Simultaneous Nadir Overpasses (SNOs) Predictions

Prediction of SNOs between AQUA and NOAA-19 Satellite Orbit:

Table of predicted SNOs for the next 14.0 days since TLE Epoch: 1/14/2017
Index Date (AQUA) Time (AQUA) Lat,Lon (AQUA) SZA (AQUA ) Date (NOAA-19) Time (NOAA-19) Lat,Lon (NOAA-19) SZA (NOAA-19 ) Distance(km) Time Diff (sec)
1 01/15/2017 05:02:58 -80.97,-116.61 75.65 01/15/2017 05:02:25 -80.95,-116.51 75.66 2.26 33
2 01/15/2017 05:52:24 80.94, 51.35 104.29 01/15/2017 05:53:19 80.95, 51.38 104.27 0.64 55
3 01/17/2017 10:36:44 80.97, -20.02 103.94 01/17/2017 10:36:15 80.96, -20.03 103.95 1.00 29
4 01/17/2017 11:26:10 -80.96, 147.70 76.08 01/17/2017 11:27:20 -80.95, 147.56 76.11 2.58 70
5 01/19/2017 16:10:29 -80.96, 76.67 76.53 01/19/2017 16:10:14 -80.95, 76.81 76.54 2.56 15
6 01/19/2017 16:59:56 80.96,-115.74 103.48 01/19/2017 17:01:10 80.95,-115.91 103.46 3.08 74
7 01/21/2017 21:44:15 80.96, 173.19 103.01 01/21/2017 21:44:05 80.96, 173.03 103.03 2.84 10
8 01/24/2017 03:18:00 -80.95, -90.16 77.51 01/24/2017 03:18:03 -80.95, -90.02 77.53 2.39 3




NCC Satellite Simultaneous Nadir Overpasses (SNOs) Prediction Service
